Location: Columbus
(35.2256°N, 82.1549°W)
Time: 00:31:24
(UTC-05:00)

Envisat - Pass Details

Date: 30 November 2021
Orbit: 764 x 766 km, 98.2° (Epoch: 25 January)

Event Time Altitude Azimuth Distance (km) Brightness Sun altitude
Rises 06:23:38 0° 357° (N) 3,237 6.0 -11.1°
Reaches altitude 10° 06:26:18 10° 345° (NNW) 2,307 5.2 -10.6°
Maximum altitude 06:30:21 25° 292° (WNW) 1,521 4.0 -9.8°
Drops below altitude 10° 06:34:23 10° 238° (WSW) 2,295 5.1 -9.0°
Sets 06:37:02 0° 225° (SW) 3,216 6.0 -8.5°
